When you browse on this site, cookies collect data to enhance your experience and personalize the content and advertising you see.
Visit our Privacy Policy to learn more. By continuing to use the site, you agree to this use of cookies and data.
  • In Romania
  • List of Countries
  • For 7 days
  • Water Temperature
  • Weather Map
  • Weather Widgets
  • user-avatar
    Login

    Hourly Weather Brisbane

    Today, 21 October, Monday

    Time Temperature Precipitation Wind Pressure Humidity
    00:00 +19°C° 0.3 mm 4 mps 765 mmHg 79%
    01:00 +18°C° 0.3 mm 4 mps 765 mmHg 79%
    02:00 +18°C° 0 mm 4 mps 765 mmHg 79%
    03:00 +18°C° 0 mm 4 mps 765 mmHg 79%
    04:00 +17°C° 0 mm 2 mps 765 mmHg 82%
    05:00 +18°C° 0 mm 3 mps 765 mmHg 76%
    06:00 +19°C° 0 mm 3 mps 766 mmHg 71%
    07:00 +20°C° 0 mm 4 mps 766 mmHg 66%
    08:00 +21°C° 0 mm 4 mps 766 mmHg 57%
    09:00 +23°C° 0 mm 5 mps 766 mmHg 49%
    10:00 +26°C° 0 mm 4 mps 766 mmHg 41%
    11:00 +26°C° 0 mm 5 mps 766 mmHg 39%
    12:00 +26°C° 0 mm 5 mps 765 mmHg 38%
    13:00 +27°C° 0 mm 6 mps 764 mmHg 36%
    14:00 +26°C° 0 mm 6 mps 765 mmHg 39%
    15:00 +24°C° 0 mm 6 mps 765 mmHg 43%
    16:00 +23°C° 0 mm 6 mps 765 mmHg 46%
    17:00 +22°C° 0 mm 5 mps 765 mmHg 52%
    18:00 +21°C° 0 mm 5 mps 766 mmHg 58%
    19:00 +19°C° 0 mm 4 mps 767 mmHg 63%
    20:00 +19°C° 0 mm 3 mps 767 mmHg 66%
    21:00 +18°C° 0 mm 3 mps 767 mmHg 69%
    22:00 +18°C° 0 mm 3 mps 768 mmHg 72%
    23:00 +18°C° 0 mm 2 mps 767 mmHg 72%

    Tomorrow, 22 October, Tuesday

    Time Temperature Precipitation Wind Pressure Humidity
    00:00 +17°C° 0 mm 2 mps 766 mmHg 73%
    01:00 +17°C° 0 mm 2 mps 766 mmHg 74%
    02:00 +17°C° 0 mm 2 mps 766 mmHg 75%
    03:00 +16°C° 0 mm 2 mps 766 mmHg 76%
    04:00 +16°C° 0 mm 2 mps 766 mmHg 76%
    05:00 +17°C° 0 mm 2 mps 766 mmHg 72%
    06:00 +18°C° 0 mm 2 mps 766 mmHg 68%
    07:00 +19°C° 0 mm 2 mps 766 mmHg 64%
    08:00 +21°C° 0 mm 2 mps 766 mmHg 57%
    09:00 +24°C° 0 mm 3 mps 766 mmHg 51%
    10:00 +25°C° 0 mm 3 mps 767 mmHg 45%
    11:00 +26°C° 0 mm 3 mps 766 mmHg 44%
    12:00 +26°C° 0 mm 4 mps 765 mmHg 42%
    13:00 +27°C° 0 mm 4 mps 764 mmHg 41%
    14:00 +26°C° 0 mm 4 mps 764 mmHg 44%
    15:00 +26°C° 0 mm 4 mps 764 mmHg 48%
    16:00 +25°C° 0 mm 5 mps 764 mmHg 51%
    17:00 +23°C° 0 mm 4 mps 765 mmHg 58%
    18:00 +21°C° 0 mm 4 mps 765 mmHg 65%
    19:00 +20°C° 0 mm 3 mps 765 mmHg 72%
    20:00 +19°C° 0 mm 3 mps 766 mmHg 74%
    21:00 +19°C° 0 mm 2 mps 766 mmHg 76%
    22:00 +18°C° 0 mm 2 mps 767 mmHg 78%
    23:00 +18°C° 0 mm 2 mps 766 mmHg 80%

    Day after tomorrow, 23 October, Wednesday

    Time Temperature Precipitation Wind Pressure Humidity
    00:00 +18°C° 0 mm 2 mps 766 mmHg 81%
    01:00 +17°C° 0 mm 2 mps 766 mmHg 82%
    02:00 +17°C° 0 mm 2 mps 765 mmHg 82%
    03:00 +16°C° 0 mm 2 mps 765 mmHg 83%
    04:00 +16°C° 0 mm 2 mps 765 mmHg 83%
    05:00 +17°C° 0 mm 2 mps 766 mmHg 78%
    06:00 +18°C° 0 mm 2 mps 766 mmHg 72%
    07:00 +19°C° 0 mm 2 mps 766 mmHg 67%
    08:00 +21°C° 0 mm 2 mps 766 mmHg 59%
    09:00 +24°C° 0 mm 2 mps 766 mmHg 51%
    10:00 +26°C° 0 mm 3 mps 766 mmHg 43%
    11:00 +27°C° 0 mm 3 mps 766 mmHg 42%
    12:00 +27°C° 0 mm 3 mps 765 mmHg 40%
    13:00 +28°C° 0 mm 4 mps 764 mmHg 39%
    14:00 +27°C° 0 mm 4 mps 764 mmHg 41%
    15:00 +26°C° 0 mm 4 mps 764 mmHg 43%
    16:00 +26°C° 0 mm 4 mps 763 mmHg 45%
    17:00 +24°C° 0 mm 3 mps 764 mmHg 53%
    18:00 +21°C° 0 mm 3 mps 764 mmHg 60%
    19:00 +19°C° 0 mm 2 mps 764 mmHg 68%
    20:00 +19°C° 0 mm 2 mps 765 mmHg 71%
    21:00 +19°C° 0 mm 1 mps 765 mmHg 74%
    22:00 +19°C° 0 mm 1 mps 765 mmHg 77%
    23:00 +18°C° 0 mm 1 mps 765 mmHg 79%

    24 October, Thursday

    Time Temperature Precipitation Wind Pressure Humidity
    00:00 +18°C° 0 mm 1 mps 765 mmHg 81%
    01:00 +18°C° 0 mm 1 mps 764 mmHg 82%
    02:00 +16°C° 0 mm 1 mps 764 mmHg 83%
    03:00 +16°C° 0 mm 1 mps 764 mmHg 84%
    04:00 +16°C° 0 mm 1 mps 764 mmHg 84%
    05:00 +18°C° 0 mm 1 mps 764 mmHg 79%
    06:00 +20°C° 0 mm 1 mps 764 mmHg 74%
    07:00 +21°C° 0 mm 1 mps 764 mmHg 68%
    08:00 +24°C° 0 mm 1 mps 764 mmHg 58%
    09:00 +26°C° 0 mm 1 mps 764 mmHg 48%
    10:00 +29°C° 0 mm 1 mps 764 mmHg 39%
    11:00 +29°C° 0 mm 2 mps 763 mmHg 37%
    12:00 +30°C° 0 mm 3 mps 763 mmHg 36%
    13:00 +30°C° 0 mm 3 mps 762 mmHg 35%
    14:00 +29°C° 0 mm 4 mps 762 mmHg 39%
    15:00 +28°C° 0 mm 4 mps 762 mmHg 42%
    16:00 +27°C° 0 mm 5 mps 761 mmHg 46%
    17:00 +25°C° 0 mm 4 mps 762 mmHg 54%
    18:00 +22°C° 0 mm 3 mps 762 mmHg 62%
    19:00 +20°C° 0 mm 2 mps 763 mmHg 70%
    20:00 +19°C° 0 mm 2 mps 763 mmHg 72%
    21:00 +19°C° 0 mm 2 mps 763 mmHg 75%
    22:00 +18°C° 0 mm 2 mps 764 mmHg 78%
    23:00 +19°C° 0 mm 1 mps 763 mmHg 79%

    25 October, Friday

    Time Temperature Precipitation Wind Pressure Humidity
    00:00 +19°C° 0 mm 1 mps 763 mmHg 79%
    01:00 +18°C° 0 mm 1 mps 763 mmHg 80%
    02:00 +18°C° 0 mm 1 mps 762 mmHg 81%
    03:00 +18°C° 0 mm 1 mps 762 mmHg 81%
    04:00 +18°C° 0 mm 1 mps 762 mmHg 82%
    05:00 +19°C° 0 mm 1 mps 762 mmHg 76%
    06:00 +20°C° 0 mm 1 mps 762 mmHg 70%
    07:00 +22°C° 0 mm 1 mps 763 mmHg 64%
    08:00 +24°C° 0 mm 1 mps 762 mmHg 55%
    09:00 +26°C° 0 mm 2 mps 762 mmHg 46%
    10:00 +29°C° 0 mm 2 mps 762 mmHg 37%
    11:00 +29°C° 0 mm 2 mps 761 mmHg 36%
    12:00 +29°C° 0 mm 3 mps 761 mmHg 35%
    13:00 +30°C° 0 mm 4 mps 760 mmHg 34%
    14:00 +29°C° 0 mm 4 mps 760 mmHg 37%
    15:00 +28°C° 0 mm 4 mps 759 mmHg 40%
    16:00 +27°C° 0 mm 5 mps 759 mmHg 42%
    17:00 +25°C° 0 mm 4 mps 759 mmHg 51%
    18:00 +22°C° 0 mm 4 mps 760 mmHg 60%
    19:00 +20°C° 0 mm 4 mps 760 mmHg 68%
    20:00 +20°C° 0 mm 4 mps 761 mmHg 71%
    21:00 +19°C° 0 mm 3 mps 761 mmHg 74%
    22:00 +18°C° 0 mm 3 mps 761 mmHg 78%
    23:00 +18°C° 0 mm 3 mps 761 mmHg 78%

    26 October, Saturday

    Time Temperature Precipitation Wind Pressure Humidity
    00:00 +18°C° 0 mm 3 mps 760 mmHg 79%
    01:00 +17°C° 0 mm 2 mps 760 mmHg 80%
    02:00 +17°C° 0 mm 2 mps 760 mmHg 81%
    03:00 +17°C° 0 mm 2 mps 759 mmHg 82%
    04:00 +17°C° 0 mm 2 mps 759 mmHg 84%
    05:00 +18°C° 0 mm 2 mps 759 mmHg 78%
    06:00 +19°C° 0 mm 2 mps 760 mmHg 73%
    07:00 +20°C° 0 mm 2 mps 760 mmHg 67%
    08:00 +24°C° 0 mm 2 mps 760 mmHg 59%
    09:00 +26°C° 0 mm 3 mps 759 mmHg 50%
    10:00 +29°C° 0 mm 3 mps 759 mmHg 41%
    11:00 +30°C° 0 mm 3 mps 758 mmHg 39%
    12:00 +32°C° 0 mm 4 mps 758 mmHg 38%
    13:00 +33°C° 0 mm 5 mps 757 mmHg 36%
    14:00 +32°C° 0 mm 5 mps 757 mmHg 42%
    15:00 +29°C° 0 mm 5 mps 756 mmHg 47%
    16:00 +28°C° 0 mm 6 mps 755 mmHg 52%
    17:00 +26°C° 0 mm 6 mps 756 mmHg 58%
    18:00 +24°C° 0 mm 6 mps 756 mmHg 65%
    19:00 +22°C° 0 mm 6 mps 756 mmHg 71%
    20:00 +22°C° 0 mm 5 mps 757 mmHg 71%
    21:00 +21°C° 0 mm 4 mps 757 mmHg 71%
    22:00 +21°C° 0 mm 4 mps 757 mmHg 70%
    23:00 +20°C° 0 mm 3 mps 757 mmHg 72%

    27 October, Sunday

    Time Temperature Precipitation Wind Pressure Humidity
    00:00 +20°C° 0 mm 3 mps 756 mmHg 73%
    01:00 +19°C° 0 mm 2 mps 756 mmHg 74%
    02:00 +19°C° 0 mm 2 mps 757 mmHg 74%
    03:00 +19°C° 0 mm 2 mps 757 mmHg 74%
    04:00 +19°C° 0 mm 2 mps 757 mmHg 74%
    05:00 +20°C° 0 mm 2 mps 758 mmHg 69%
    06:00 +21°C° 0 mm 2 mps 758 mmHg 65%
    07:00 +23°C° 0 mm 2 mps 759 mmHg 61%
    08:00 +25°C° 0 mm 2 mps 758 mmHg 54%
    09:00 +27°C° 0 mm 3 mps 758 mmHg 47%
    10:00 +30°C° 0 mm 3 mps 758 mmHg 40%
    11:00 +29°C° 0 mm 4 mps 758 mmHg 40%
    12:00 +29°C° 0 mm 4 mps 758 mmHg 40%
    13:00 +29°C° 0 mm 5 mps 757 mmHg 40%
    14:00 +28°C° 0 mm 5 mps 757 mmHg 44%
    15:00 +27°C° 0 mm 5 mps 757 mmHg 48%
    16:00 +26°C° 0 mm 6 mps 757 mmHg 52%
    17:00 +23°C° 0 mm 5 mps 758 mmHg 57%
    18:00 +22°C° 0 mm 4 mps 759 mmHg 62%
    19:00 +21°C° 0 mm 3 mps 760 mmHg 67%
    20:00 +20°C° 0 mm 3 mps 760 mmHg 69%
    21:00 +20°C° 0 mm 3 mps 761 mmHg 70%
    22:00 +19°C° 0 mm 3 mps 762 mmHg 72%
    23:00 +19°C° 0 mm 3 mps 761 mmHg 74%
    Show more